[ ตารางข้อมูล ] [ Min-Max ] [ วันนี้2 ] [ วันนี้4 ] [ เทียบ-A 3วัน ] [ เทียบ-B 4วัน ]   

วันนี้4   [ ◀ ช่วงเก่ากว่า ] [ ช่วงที่ 12 ] [ ช่วงใหม่กว่า ▶ ] [ ล่าสุด ]    [ 3 ชั่วโมง ] [ 6 ชั่วโมง ] [ 12 ชั่วโมง ] [ 24 ชั่วโมง ]   วันนี้4

อุณภูมิในตู้ Knockdown4529  ราย 24 ชั่วโมง  ที่วัดได้ ในช่วงวันเวลา 19/08/2026 (14:55) ถึง 20/08/2026 (14:55) 
ความชื้นในตู้ Knockdown4529  ราย 24 ชั่วโมง  ที่วัดได้ ในช่วงวันเวลา 19/08/2026 (14:55) ถึง 20/08/2026 (14:55) 
การใช้ไฟฟ้าในตู้ Knockdown4529  ราย 24 ชั่วโมง  ที่วัดได้ ในช่วงวันเวลา 19/08/2026 (14:55) ถึง 20/08/2026 (14:55) 

  DS18B20SHTC3PZEM-004TWiFi 
IDDate d/m/Y & Timedata1
สูง
data2
ต่ำ
data3
นอก
temp
pcb
hum
pcb
VoltAmpWattrssiTime
 14378  20/08/2026 14:52:39  33.1  31.9  34.0  34.0  63.1  234.8  0.04  4.6  -81  14:52 
 14377  20/08/2026 14:47:55  33.1  31.9  33.8  34.0  63.2  234.9  0.04  4.6  -78  14:47 
 14376  20/08/2026 14:43:11  33.1  31.9  33.9  33.9  63.1  235.2  0.04  4.6  -80  14:43 
 14375  20/08/2026 14:38:27  33.1  31.8  34.0  34.1  63.2  235.0  0.04  4.6  -80  14:38 
 14374  20/08/2026 14:33:43  33.0  31.8  34.3  33.8  63.1  234.4  0.04  4.6  -79  14:33 
 14373  20/08/2026 14:28:59  32.9  31.8  34.0  33.8  63.3  235.6  0.04  4.6  -80  14:28 
 14372  20/08/2026 14:24:16  32.9  31.7  34.0  33.6  63.1  234.4  0.04  4.6  -79  14:24 
 14371  20/08/2026 14:19:32  32.9  31.7  33.9  34.0  63.4  235.8  0.04  4.6  -80  14:19 
 14370  20/08/2026 14:14:49  32.8  31.6  33.9  33.8  63.3  235.8  0.04  4.6  -79  14:14 
 14369  20/08/2026 14:10:05  32.8  31.6  33.7  33.8  63.3  235.2  0.04  4.6  -80  14:10 
 14368  20/08/2026 14:05:22  32.8  31.6  33.7  33.7  63.4  235.1  0.04  4.6  -81  14:05 
 14367  20/08/2026 14:00:39  32.8  31.6  33.5  33.8  63.4  233.6  0.04  4.6  -79  14:00 
 14366  20/08/2026 13:55:52  32.8  31.6  33.4  33.6  63.3  233.2  0.04  4.6  -77  13:55 
 14365  20/08/2026 13:51:09  32.8  31.5  33.4  33.6  63.3  233.3  0.04  4.6  -80  13:51 
 14364  20/08/2026 13:46:25  32.7  31.5  33.4  33.5  63.4  233.0  0.04  4.6  -80  13:46 
 14363  20/08/2026 13:41:42  32.6  31.4  33.5  33.4  63.2  232.6  0.04  4.6  -79  13:41 
 14362  20/08/2026 13:36:58  32.6  31.4  33.4  33.8  63.3  232.1  0.04  4.6  -80  13:36 
 14361  20/08/2026 13:32:15  32.6  31.4  33.4  33.3  63.3  233.2  0.04  4.6  -81  13:32 
 14360  20/08/2026 13:27:32  32.6  31.4  33.2  33.5  63.4  232.4  0.04  4.6  -79  13:27 
 14359  20/08/2026 13:22:48  32.6  31.3  33.2  33.5  63.2  233.4  0.04  4.6  -78  13:22 
 14358  20/08/2026 13:18:05  32.5  31.3  33.0  33.6  63.2  233.2  0.04  4.6  -78  13:18 
 14357  20/08/2026 13:13:21  32.5  31.2  32.9  33.3  63.0  232.4  0.04  4.6  -80  13:13 
 14356  20/08/2026 13:08:38  32.5  31.2  32.9  33.3  62.8  232.4  0.04  4.6  -78  13:08 
 14355  20/08/2026 13:03:55  32.5  31.2  33.0  33.3  63.4  233.0  0.04  4.6  -79  13:03 

Data every 5 minute.


ใช้เวลาประมวลผล 0.03725 วินาที